This is the latest recevied weather packets stored in our database for station/object K5NOC-12. If no packets are shown the sender has not sent any weather packets the latest 10 day(s).
| Time | Temp. | Humidity | Pressure | Rain* | Wind** | Luminosity | Snow |
|---|---|---|---|---|---|---|---|
| 1787509962 | 37.22° C | 22% | 1020 hPa | 0 mm | - | - | - |
| 1787509062 | 36.67° C | 23% | 1020.3 hPa | 0 mm | - | - | - |
| 1787508162 | 36.11° C | 25% | 1020.5 hPa | 0 mm | - | - | - |
| 1787507262 | 35.56° C | 26% | 1020.7 hPa | 0 mm | - | - | - |
| 1787506362 | 35.56° C | 26% | 1020.9 hPa | 0 mm | - | - | - |
| 1787505462 | 34.44° C | 28% | 1021.1 hPa | 0 mm | - | - | - |
| 1787504562 | 33.89° C | 29% | 1021.2 hPa | 0 mm | - | - | - |
| 1787503662 | 33.33° C | 29% | 1021.4 hPa | 0 mm | - | - | - |
| 1787502761 | 32.78° C | 31% | 1021.3 hPa | 0 mm | - | - | - |
| 1787501861 | 32.22° C | 34% | 1021.3 hPa | 0 mm | - | - | - |
| 1787500961 | 31.11° C | 36% | 1021.4 hPa | 0 mm | - | - | - |
| 1787500061 | 30.56° C | 36% | 1021.4 hPa | 0 mm | - | - | - |
| 1787499161 | 30° C | 37% | 1021.3 hPa | 0 mm | - | - | - |
| 1787498261 | 28.89° C | 41% | 1021.3 hPa | 0 mm | - | - | - |
| 1787497361 | 28.33° C | 43% | 1021.3 hPa | 0 mm | - | - | - |
| 1787496461 | 27.22° C | 46% | 1021.4 hPa | 0 mm | - | - | - |
| 1787495561 | 26.11° C | 48% | 1021.6 hPa | 0 mm | - | - | - |
| 1787494660 | 25.56° C | 50% | 1021.7 hPa | 0 mm | - | - | - |
| 1787493760 | 24.44° C | 52% | 1021.9 hPa | 0 mm | - | - | - |
| 1787492860 | 23.89° C | 55% | 1021.9 hPa | 0 mm | - | - | - |
| 1787491960 | 23.33° C | 56% | 1021.7 hPa | 0 mm | - | - | - |
| 1787491060 | 23.33° C | 56% | 1021.8 hPa | 0 mm | - | - | - |
| 1787490160 | 22.78° C | 57% | 1021.6 hPa | 0 mm | - | - | - |
| 1787489260 | 22.78° C | 58% | 1021.6 hPa | 0 mm | - | - | - |
| 1787488360 | 22.78° C | 58% | 1021.6 hPa | 0 mm | - | - | - |
* Rain latest hour (hover to see other rain measurements)
** Current wind speed in m/s (hover to see current wind gust speed)